Погода в Кобоне

Россия / Санкт-Петербург и Ленинградская область     60°01′28″N   31°33′02″E
темп.,
°C
ветер,
м/с
пор.,
м/с
влажн.,
%
обл.,
%
осадки,
мм/ч
давл.,
гПа
погр.,
м
6 августа, пт
пт600:00+15всв2370100 0.0 1015177
03:00+15в2373100 0.0 1015136
06:00+14всв367968 0.1 1015263
09:00+16св6107180 0.2 1014860
12:00+18всв8106098 0.0 10151632
15:00+15всв71080100 0.1 1014846
18:00+14всв7108498 0.1 1014632
21:00+15всв61079100 0.1 1013642
7 августа, сб
сб700:00+13всв61290100 0.0 1013461
03:00+14всв71288100 0.0 1012485
06:00+14всв71292100 0.0 1011486
09:00+15всв71288100 0.1 1010626
12:00+16в81491100 1.4 1009724
15:00+16в81596100 11.2 1008755
18:00+16в81494100 5.2 1007816
21:00+16вюв61097100 6.1 1007452
8 августа, вс
вс800:00+17вюв5997100 0.0 1007399
03:00+17юв489597 0.4 1008464
06:00+17ююв469363 0.4 1008314
09:00+16ююз468338 0.4 1010375
12:00+19ю347144 0.0 1011538
15:00+20ююв457272 0.4 1012278
18:00+20зюз117011 0.4 1012392
21:00+18ююз2379100 0.4 101448
9 августа, пн
пн900:00+17ююв2380100 0.1 101498
03:00+16ююв468789 0.1 1015149
06:00+16ююв468858 0.0 1014153
09:00+20ююв4674100 0.0 1014303
12:00+23ююв576132 0.1 1013494
15:00+23ю597133 0.4 1014389
18:00+22юз697056 0.3 1014503
21:00+19ююз598423 0.3 1015360
10 августа, вт
вт1000:00+18юз59935 0.0 1016373
03:00+16юз359482 0.0 1017171
06:00+16ююз35900 0.0 1017158
09:00+19ююз35765 0.0 1018399
12:00+21юз236496 0.0 1018619
15:00+22юз1359100 0.0 1017799
18:00+22юз116292 0.0 1017136
21:00+20ююв2270100 0.0 101725